Home   Weather   Damascus   Past weeks
Flag for Syria

Past Weather in Damascus, Syria — Yesterday and Last 2 Weeks

Now
73 °F

Sandstorm.


Feels Like: 77 °F
Forecast: 87 / 61 °F
Wind: 29 mph from Southwest

Location: Damascus Int. Airport

Current Time: Oct 15, 2019 at 4:52:55 am

Latest Report: Oct 15, 2019 at 4:11 am


Visibility: 1 mi

Pressure: 30.15 "Hg (27.85 "Hg at 689m altitude)

Humidity: 47%

Dew Point: 52 °F

Location of DamascusLocation

Past Weather in Damascus — Graph

°F

Damascus Temperature Yesterday

Maximum temperature yesterday: 93 °F (at 2:00 pm)
Minimum temperature yesterday: 70 °F (at 6:00 am)
Average temperature yesterday: 81 °F

High & Low Weather Summary for the Past Weeks

 TemperatureHumidityPressure
High102 °F (Oct 1, 6:00 pm)88% (Sep 30, 7:00 am)30.18 "Hg (Sep 30, 7:00 am)
Low48 °F (Oct 3, 7:00 am)8% (Oct 5, 4:00 pm)29.83 "Hg (Oct 1, 3:00 pm)
Average74 °F42%30.00 "Hg
* Reported Sep 30 3:00 am — Oct 15 3:00 am, Damascus. Weather by CustomWeather, © 2019

Note: Actual official high and low records may vary slightly from our data, if they occured in-between our weather recording intervals... More about our weather records

Advertising

Damascus Weather History for the Previous 24 Hours

Scroll right to see more
 ConditionsComfort  
Time TempWeatherWind HumidityBarometerVisibility
3:00 am
Tue, Oct 15
75 °FPartly cloudy.16 mph36%30.18 "HgN/A
2:00 am75 °FPartly cloudy.12 mph34%30.15 "HgN/A
1:10 am72 °FPartly cloudy.5 mph41%30.15 "HgN/A
1:00 am73 °FPassing clouds.5 mph36%30.15 "HgN/A
12:00 am75 °FClear.9 mph36%30.15 "Hg10 mi
11:00 pm
Mon, Oct 14
77 °FClear.5 mph32%30.15 "Hg10 mi
10:00 pm81 °FPassing clouds.9 mph28%30.12 "HgN/A
9:00 pm82 °FPassing clouds.14 mph28%30.09 "HgN/A
8:00 pm84 °FSandstorm.23 mph25%30.09 "Hg2 mi
7:26 pm86 °FSandstorm.26 mph24%30.09 "Hg1 mi
7:00 pm82 °FPassing clouds.5 mph21%30.07 "HgN/A
6:00 pm90 °FPassing clouds.No wind16%30.04 "HgN/A
5:00 pm93 °FPassing clouds.7 mph14%30.04 "HgN/A
4:00 pm93 °FPassing clouds.5 mph14%30.07 "HgN/A
3:00 pm93 °FSunny.7 mph14%30.07 "Hg10 mi
2:00 pm93 °FSunny.9 mph14%30.09 "Hg10 mi
1:00 pm91 °FSunny.12 mph15%30.12 "Hg10 mi
12:00 pm88 °FSunny.12 mph18%30.15 "Hg10 mi
11:00 am86 °FSunny.12 mph18%30.15 "Hg10 mi
10:00 am81 °FSunny.7 mph23%30.18 "Hg10 mi
9:00 am77 °FSunny.5 mph28%30.18 "Hg10 mi
8:00 am72 °FSunny.5 mph38%30.15 "Hg10 mi
7:00 am70 °FSunny.13 mph40%30.12 "Hg10 mi
6:00 am70 °FClear.15 mph43%30.12 "Hg10 mi
5:00 am73 °FClear.16 mph33%30.12 "Hg10 mi
4:00 am73 °FClear.13 mph33%30.12 "Hg10 mi
Weather by CustomWeather, © 2019

See weather overview